Retour au catalogue

CZ-6A DEB

ActifPO
NORAD 55212·DEBRIS·🇨🇳 China

Lancé Nov 11, 2022 depuis Taiyuan Satellite Launch Center

Loading…

Prochains Passages (prochaines 24 heures)

TLE

FraisSource: Space-Track

Époque: Sep 14, 2026, 05:37 UTC

1 55212U 22151WD  26257.23439545  .00098653  00000-0  40697-2 0  9992
2 55212  98.6358 355.6859 0024605 278.9470  80.8979 15.23358717199485

Suivez CZ-6A DEB en temps réel avec AllMySat

Download on the App Store